Simultaneous Nadir Overpasses (SNOs) Predictions

Prediction of SNOs between LANDSAT-8 and METOP-B Satellite Orbit:

Table of predicted SNOs for the next 14.0 days since TLE Epoch: 1/31/2014
Index Date (LANDSAT-8) Time (LANDSAT-8) Lat,Lon (LANDSAT-8) SZA (LANDSAT-8 ) Date (METOP-B) Time (METOP-B) Lat,Lon (METOP-B) SZA (METOP-B ) Distance(km) Time Diff (sec)
1 02/03/2014 10:37:54 81.07, 59.43 99.10 02/03/2014 10:36:45 81.07, 59.40 99.07 0.68 69
2 02/03/2014 11:27:20 -81.08,-132.70 80.88 02/03/2014 11:27:24 -81.08,-132.84 80.89 2.41 4
3 02/06/2014 06:12:07 81.05, 125.66 98.22 02/06/2014 06:11:07 81.05, 125.48 98.18 3.12 60
4 02/06/2014 07:01:32 -81.10, -66.09 81.71 02/06/2014 07:01:44 -81.10, -66.01 81.70 1.41 12
5 02/09/2014 01:46:18 81.08,-167.58 97.38 02/09/2014 01:45:27 81.07,-167.74 97.34 2.93 51
6 02/09/2014 02:35:44 -81.09, 0.32 82.60 02/09/2014 02:36:05 -81.10, 0.39 82.58 1.38 21
7 02/11/2014 21:20:29 81.06,-101.38 96.43 02/11/2014 21:19:47 81.06,-101.38 96.42 0.58 42
8 02/11/2014 22:09:54 -81.10, 66.90 83.49 02/11/2014 22:10:25 -81.10, 66.76 83.50 2.50 31
9 02/14/2014 16:54:39 81.08, -34.65 95.53 02/14/2014 16:54:07 81.07, -34.70 95.51 1.07 32




NCC Satellite Simultaneous Nadir Overpasses (SNOs) Prediction Service
